Weather History for VTUU - December, 2013

Change the Weather History Date:

Sunday, December 29, 2013

  Actual Average Record
Temperature  
Mean Temperature 68 °F -  
Max Temperature 79 °F 88 °F - ()
Min Temperature 56 °F 63 °F - ()
Cooling Degree Days 2    
Growing Degree Days 18 (Base 50)    
Moisture  
Dew Point 58 °F    
Average Humidity 75    
Maximum Humidity 100    
Minimum Humidity 43    
Precipitation  
Precipitation 0.00 in 0.00 in - ()
Sea Level Pressure  
Sea Level Pressure 30.00 in    
Wind  
Wind Speed 5 mph ()    
Max Wind Speed 10 mph    
Max Gust Speed -    
Visibility 4.2 miles    
Events      
T = Trace of Precipitation, MM = Missing Value Source: Averaged Metar Reports

Daily Weather History Graph

Daily Weather History Graph

Search for Another Location

Airport or City:

Trip Planner

Search our weather history database for the weather conditions in past years. The results will help you decide how hot, cold, wet, or windy it might be!

Date:

Astronomy

Dec. 29, 2013 Rise Set
Actual Time 6:25 AM ICT 5:39 PM ICT
Civil Twilight 6:02 AM ICT 6:02 PM ICT
Nautical Twilight 5:35 AM ICT 6:29 PM ICT
Astronomical Twilight 5:08 AM ICT 6:56 PM ICT
Moon 2:49 AM ICT (12/29) 2:37 PM ICT (12/29)
Length of Visible Light 12h 00m
Length of Day
11h 14m
Waning Crescent, 15% of the Moon is Illuminated
Dec 29
Waning Crescent
Jan 1
New
Jan 8
First Quarter
Jan 16
Full
Jan 24
Last Quarter

Hourly Weather History & Observations

Time (ICT) Temp. Dew Point Humidity Pressure Visibility Wind Dir Wind Speed Gust Speed Precip Events Conditions
1:00 AM 59 °F 57 °F 90% 30.03 in 4 mi North 5.8 mph - -   Mist
1:00 AM 59.0 °F 57.2 °F 94% 30.01 in 4.3 mi North 5.8 mph - N/A   Unknown
2:00 AM 59.0 °F 57.2 °F 94% 30.01 in 4.3 mi NNW 4.6 mph - N/A   Unknown
4:00 AM 58 °F 57 °F 94% 30.01 in 4 mi NNE 3.5 mph - -   Mist
4:00 AM 59.0 °F 57.2 °F 94% 29.98 in 4.3 mi NNE 3.5 mph - N/A   Unknown
5:00 AM 59.0 °F 57.2 °F 94% 30.01 in 4.3 mi NNE 3.5 mph - N/A   Unknown
6:00 AM 57.2 °F 57.2 °F 100% 30.01 in 3.7 mi NNE 4.6 mph - N/A   Unknown
6:30 AM 57.2 °F 57.2 °F 100% 30.01 in 2.5 mi NE 4.6 mph - N/A   Mist
7:00 AM 58 °F 56 °F 90% 30.05 in 2 mi NE 4.6 mph - -   Mist
7:00 AM 57.2 °F 55.4 °F 94% 30.04 in 2.5 mi NE 4.6 mph - N/A   Mist
8:00 AM 60.8 °F 57.2 °F 88% 30.06 in 3.7 mi NNE 6.9 mph - N/A   Unknown
9:00 AM 64.4 °F 57.2 °F 77% 30.06 in 3.7 mi NNE 9.2 mph - N/A   Unknown
10:00 AM 70 °F 58 °F 57% 30.07 in 4 mi NNE 8.1 mph - -   Mist
10:00 AM 69.8 °F 59.0 °F 68% 30.06 in 4.3 mi NNE 8.1 mph - N/A   Unknown
11:00 AM 71.6 °F 59.0 °F 64% 30.04 in 5.0 mi NE 10.4 mph - N/A   Unknown
12:00 PM 73.4 °F 59.0 °F 61% 30.01 in 5.0 mi NNE 9.2 mph - N/A   Unknown
1:00 PM 76 °F 60 °F 48% 29.96 in 5 mi NE 9.2 mph - -   Haze
1:00 PM 75.2 °F 60.8 °F 61% 29.95 in 5.0 mi NE 9.2 mph - N/A   Scattered Clouds
2:00 PM 77.0 °F 60.8 °F 57% 29.92 in 5.0 mi NE 8.1 mph - N/A   Scattered Clouds
4:00 PM 77 °F 59 °F 43% 29.91 in 5 mi NNE 5.8 mph - -   Haze
4:00 PM 77.0 °F 59.0 °F 54% 29.89 in 5.0 mi NNE 5.8 mph - N/A   Scattered Clouds
5:30 PM 73.4 °F 59.0 °F 61% 29.92 in 5.0 mi NNE 5.8 mph - N/A   Unknown
6:00 PM 73.4 °F 59.0 °F 61% 29.95 in 4.3 mi North 4.6 mph - N/A   Unknown
7:00 PM 69 °F 59 °F 61% 29.98 in 4 mi NNE 4.6 mph - -   Mist
7:00 PM 69.8 °F 59.0 °F 68% 29.98 in 4.3 mi NNE 4.6 mph - N/A   Unknown
8:00 PM 66.2 °F 57.2 °F 73% 30.01 in 4.3 mi NNE 8.1 mph - N/A   Unknown
9:00 PM 64.4 °F 57.2 °F 77% 30.01 in 4.3 mi North 5.8 mph - N/A   Unknown
10:00 PM 63 °F 58 °F 78% 30.03 in 4 mi NNE 4.6 mph - -   Mist
10:00 PM 62.6 °F 57.2 °F 82% 30.01 in 4.3 mi NNE 4.6 mph - N/A   Unknown
11:00 PM 62.6 °F 57.2 °F 82% 30.01 in 4.3 mi NNE 6.9 mph - N/A   Unknown